TimeCDT,TemperatureF,Dew PointF,Humidity,Sea Level PressureIn,VisibilityMPH,Wind Direction,Wind SpeedMPH,Gust SpeedMPH,PrecipitationIn,Events,Conditions,WindDirDegrees,DateUTC
12:15 AM,33.8,28.4,81,30.35,10.0,South,8.1,-,N/A,,Clear,190,2013-10-25 05:15:00
12:35 AM,33.8,28.4,81,30.35,10.0,South,8.1,-,N/A,,Clear,190,2013-10-25 05:35:00
12:55 AM,33.8,28.4,81,30.35,10.0,South,6.9,-,N/A,,Scattered Clouds,190,2013-10-25 05:55:00
1:15 AM,35.6,30.2,81,30.35,10.0,South,5.8,-,N/A,,Overcast,190,2013-10-25 06:15:00
1:35 AM,39.2,30.2,70,30.35,10.0,SSW,10.4,-,N/A,,Overcast,200,2013-10-25 06:35:00
1:55 AM,41.0,30.2,65,30.35,10.0,SSW,12.7,-,N/A,,Overcast,200,2013-10-25 06:55:00
2:15 AM,42.8,28.4,57,30.35,10.0,SSW,12.7,-,N/A,,Overcast,200,2013-10-25 07:15:00
2:35 AM,42.8,28.4,57,30.34,10.0,SSW,15.0,-,N/A,,Overcast,200,2013-10-25 07:35:00
2:55 AM,42.8,28.4,57,30.34,10.0,SSW,15.0,-,N/A,,Overcast,200,2013-10-25 07:55:00
3:15 AM,42.8,28.4,57,30.35,10.0,SSW,11.5,-,N/A,,Overcast,200,2013-10-25 08:15:00
3:35 AM,41.0,26.6,57,30.35,10.0,SSW,9.2,-,N/A,,Overcast,200,2013-10-25 08:35:00
3:55 AM,39.2,26.6,61,30.34,10.0,SSW,11.5,-,N/A,,Mostly Cloudy,200,2013-10-25 08:55:00
4:15 AM,37.4,26.6,65,30.34,10.0,SSW,9.2,-,N/A,,Scattered Clouds,200,2013-10-25 09:15:00
4:35 AM,37.4,26.6,65,30.34,10.0,SSW,8.1,-,N/A,,Scattered Clouds,200,2013-10-25 09:35:00
4:55 AM,35.6,26.6,70,30.33,10.0,SSW,8.1,-,N/A,,Clear,200,2013-10-25 09:55:00
5:15 AM,35.6,26.6,70,30.33,10.0,SSW,10.4,-,N/A,,Clear,200,2013-10-25 10:15:00
5:35 AM,35.6,26.6,70,30.32,10.0,SSW,11.5,-,N/A,,Clear,200,2013-10-25 10:35:00
5:55 AM,35.6,26.6,70,30.32,10.0,SSW,12.7,-,N/A,,Clear,200,2013-10-25 10:55:00
6:15 AM,35.6,26.6,70,30.32,10.0,SSW,12.7,-,N/A,,Clear,200,2013-10-25 11:15:00
6:35 AM,35.6,26.6,70,30.32,10.0,SSW,10.4,-,N/A,,Clear,210,2013-10-25 11:35:00
6:55 AM,35.6,26.6,70,30.32,10.0,SSW,12.7,-,N/A,,Clear,210,2013-10-25 11:55:00
7:15 AM,35.6,26.6,70,30.32,10.0,SSW,13.8,-,N/A,,Clear,210,2013-10-25 12:15:00
7:35 AM,35.6,26.6,70,30.32,10.0,SSW,12.7,-,N/A,,Clear,200,2013-10-25 12:35:00
7:55 AM,33.8,26.6,75,30.31,10.0,SSW,10.4,-,N/A,,Clear,200,2013-10-25 12:55:00
8:15 AM,35.6,26.6,70,30.31,9.0,SSW,11.5,-,N/A,,Clear,200,2013-10-25 13:15:00
8:35 AM,35.6,26.6,70,30.31,10.0,SSW,9.2,-,N/A,,Clear,200,2013-10-25 13:35:00
8:55 AM,35.6,28.4,75,30.32,10.0,SSW,8.1,-,N/A,,Clear,210,2013-10-25 13:55:00
9:15 AM,37.4,28.4,70,30.31,10.0,SSW,11.5,-,N/A,,Clear,200,2013-10-25 14:15:00
9:35 AM,39.2,28.4,65,30.31,10.0,SSW,13.8,-,N/A,,Clear,210,2013-10-25 14:35:00
9:55 AM,42.8,30.2,61,30.31,10.0,SSW,16.1,24.2,N/A,,Clear,210,2013-10-25 14:55:00
10:15 AM,42.8,30.2,61,30.30,10.0,SSW,19.6,24.2,N/A,,Clear,210,2013-10-25 15:15:00
10:35 AM,44.6,30.2,57,30.29,10.0,SSW,21.9,-,N/A,,Clear,210,2013-10-25 15:35:00
10:55 AM,46.4,30.2,53,30.29,10.0,SSW,24.2,29.9,N/A,,Clear,210,2013-10-25 15:55:00
11:15 AM,48.2,30.2,50,30.28,10.0,SSW,23.0,26.5,N/A,,Clear,210,2013-10-25 16:15:00
11:35 AM,48.2,32.0,54,30.28,10.0,SSW,17.3,-,N/A,,Clear,200,2013-10-25 16:35:00
11:55 AM,50.0,32.0,50,30.27,10.0,SSW,17.3,23.0,N/A,,Clear,200,2013-10-25 16:55:00
12:15 PM,51.8,32.0,47,30.25,10.0,SSW,26.5,32.2,N/A,,Clear,210,2013-10-25 17:15:00
12:35 PM,51.8,32.0,47,30.24,10.0,SSW,23.0,29.9,N/A,,Clear,200,2013-10-25 17:35:00
12:55 PM,53.6,33.8,47,30.22,10.0,SSW,21.9,28.8,N/A,,Clear,200,2013-10-25 17:55:00
1:15 PM,53.6,33.8,47,30.21,10.0,SSW,23.0,26.5,N/A,,Clear,200,2013-10-25 18:15:00
1:35 PM,55.4,33.8,44,30.19,10.0,SSW,23.0,26.5,N/A,,Clear,200,2013-10-25 18:35:00
1:55 PM,55.4,33.8,44,30.18,10.0,SSW,16.1,26.5,N/A,,Clear,210,2013-10-25 18:55:00
2:15 PM,57.2,33.8,41,30.17,10.0,South,19.6,28.8,N/A,,Clear,190,2013-10-25 19:15:00
2:35 PM,57.2,33.8,41,30.15,10.0,SSW,21.9,25.3,N/A,,Clear,200,2013-10-25 19:35:00
2:55 PM,57.2,33.8,41,30.14,10.0,SW,18.4,27.6,N/A,,Clear,220,2013-10-25 19:55:00
3:15 PM,57.2,33.8,41,30.13,10.0,SSW,23.0,27.6,N/A,,Clear,210,2013-10-25 20:15:00
3:35 PM,57.2,33.8,41,30.11,10.0,South,21.9,28.8,N/A,,Clear,190,2013-10-25 20:35:00
3:55 PM,57.2,35.6,44,30.11,10.0,SSW,19.6,29.9,N/A,,Clear,210,2013-10-25 20:55:00
4:15 PM,57.2,33.8,41,30.11,10.0,SSW,19.6,25.3,N/A,,Clear,210,2013-10-25 21:15:00
4:35 PM,57.2,33.8,41,30.10,10.0,SSW,18.4,28.8,N/A,,Clear,210,2013-10-25 21:35:00
4:55 PM,57.2,35.6,44,30.10,10.0,SW,18.4,26.5,N/A,,Clear,220,2013-10-25 21:55:00
5:15 PM,57.2,33.8,41,30.10,10.0,SSW,18.4,25.3,N/A,,Clear,200,2013-10-25 22:15:00
5:35 PM,55.4,33.8,44,30.09,10.0,SSW,19.6,24.2,N/A,,Clear,200,2013-10-25 22:35:00
5:55 PM,55.4,33.8,44,30.08,10.0,SSW,18.4,-,N/A,,Clear,200,2013-10-25 22:55:00
6:15 PM,53.6,33.8,47,30.08,10.0,South,12.7,-,N/A,,Clear,190,2013-10-25 23:15:00
6:35 PM,51.8,33.8,50,30.07,10.0,South,11.5,-,N/A,,Clear,190,2013-10-25 23:35:00
6:55 PM,48.2,33.8,58,30.08,10.0,South,8.1,-,N/A,,Clear,190,2013-10-25 23:55:00
7:15 PM,48.2,33.8,58,30.08,10.0,South,9.2,-,N/A,,Clear,190,2013-10-26 00:15:00
7:35 PM,44.6,32.0,61,30.08,10.0,South,9.2,-,N/A,,Clear,190,2013-10-26 00:35:00
7:55 PM,44.6,32.0,61,30.08,10.0,South,8.1,-,N/A,,Clear,180,2013-10-26 00:55:00
8:15 PM,42.8,32.0,66,30.09,10.0,South,8.1,-,N/A,,Clear,180,2013-10-26 01:15:00
8:35 PM,42.8,32.0,66,30.08,10.0,South,6.9,-,N/A,,Clear,190,2013-10-26 01:35:00
8:55 PM,42.8,32.0,66,30.08,10.0,South,4.6,-,N/A,,Clear,190,2013-10-26 01:55:00
9:15 PM,44.6,32.0,61,30.08,10.0,SSW,9.2,-,N/A,,Clear,200,2013-10-26 02:15:00
9:35 PM,42.8,32.0,66,30.09,10.0,SSW,6.9,-,N/A,,Clear,200,2013-10-26 02:35:00
9:55 PM,42.8,32.0,66,30.09,10.0,SSW,8.1,-,N/A,,Clear,210,2013-10-26 02:55:00
10:15 PM,42.8,32.0,66,30.09,10.0,SSW,9.2,-,N/A,,Clear,210,2013-10-26 03:15:00
10:35 PM,42.8,32.0,66,30.09,10.0,SW,8.1,-,N/A,,Clear,220,2013-10-26 03:35:00
10:55 PM,44.6,33.8,66,30.09,10.0,SW,11.5,-,N/A,,Clear,220,2013-10-26 03:55:00
11:15 PM,44.6,33.8,66,30.09,10.0,WSW,6.9,-,N/A,,Clear,240,2013-10-26 04:15:00
11:35 PM,44.6,33.8,66,30.08,10.0,SW,6.9,-,N/A,,Clear,230,2013-10-26 04:35:00
11:55 PM,44.6,33.8,66,30.08,10.0,SW,8.1,-,N/A,,Clear,230,2013-10-26 04:55:00